Location: Foligno
(42.9600°N, 12.7050°E)
Time: 15:38:21
(UTC+02:00)

ISS - Pass Details

Date: 22 May 2018
Orbit: 402 x 407 km, 51.6° (Epoch: 27 May)

Event Time Altitude Azimuth Distance (km) Brightness Sun altitude
Rises 01:28:31 0° 299° (WNW) 2,319 0.3 -26.5°
Reaches altitude 10° 01:31:04 10° 319° (NW) 1,459 -0.5 -26.4°
Maximum altitude 01:33:24 18° 5° (N) 1,070 -0.9 -26.4°
Drops below altitude 10° 01:35:45 10° 51° (NE) 1,457 -0.5 -26.3°
Sets 01:38:17 0° 71° (ENE) 2,316 0.4 -26.3°
